This is the latest recevied weather packets stored in our database for station/object IU5JAE-13. If no packets are shown the sender has not sent any weather packets the latest 10 day(s).
| Time | Temp. | Humidity | Pressure | Rain* | Wind** | Luminosity | Snow |
|---|---|---|---|---|---|---|---|
| 1777938329 | 13.33° C | 74% | 1015.9 hPa | 0 mm | - | 0 W/m² | - |
| 1777937726 | 13.33° C | 74% | 1016.1 hPa | 0 mm | - | 0 W/m² | - |
| 1777937125 | 13.33° C | 73% | 1016.3 hPa | 0 mm | - | 0 W/m² | - |
| 1777936522 | 13.33° C | 73% | 1016.3 hPa | 0 mm | - | 0 W/m² | - |
| 1777935919 | 13.33° C | 73% | 1016.6 hPa | 0 mm | - | 0 W/m² | - |
| 1777935317 | 13.33° C | 73% | 1016.7 hPa | 0 mm | - | 0 W/m² | - |
| 1777934734 | 13.33° C | 73% | 1016.8 hPa | 0 mm | - | 0 W/m² | - |
| 1777934132 | 13.33° C | 72% | 1017 hPa | 0 mm | - | 0 W/m² | - |
| 1777933530 | 13.33° C | 72% | 1017.2 hPa | 0 mm | - | 0 W/m² | - |
| 1777932927 | 13.33° C | 74% | 1017.2 hPa | 0 mm | - | 0 W/m² | - |
| 1777932325 | 13.33° C | 74% | 1017.2 hPa | 0 mm | - | 0 W/m² | - |
| 1777931722 | 12.78° C | 75% | 1017.4 hPa | 0 mm | - | 0 W/m² | - |
| 1777931120 | 13.33° C | 75% | 1017.5 hPa | 0 mm | - | 0 W/m² | - |
| 1777930517 | 13.33° C | 76% | 1017.4 hPa | 0 mm | - | 0 W/m² | - |
| 1777929935 | 13.33° C | 77% | 1017.6 hPa | 0 mm | - | 0 W/m² | - |
| 1777929333 | 13.33° C | 76% | 1017.4 hPa | 0 mm | - | 0 W/m² | - |
| 1777928730 | 12.78° C | 76% | 1017.6 hPa | 0 mm | - | 0 W/m² | - |
| 1777928128 | 13.33° C | 76% | 1017.6 hPa | 0 mm | - | 0 W/m² | - |
| 1777927525 | 13.33° C | 77% | 1017.5 hPa | 0 mm | - | 0 W/m² | - |
| 1777926923 | 13.33° C | 76% | 1017.8 hPa | 0 mm | - | 0 W/m² | - |
| 1777926321 | 13.89° C | 75% | 1017.6 hPa | 0 mm | - | 0 W/m² | - |
| 1777925718 | 13.89° C | 72% | 1017.7 hPa | 0 mm | - | 0 W/m² | - |
| 1777925116 | 14.44° C | 69% | 1017.7 hPa | 0 mm | - | 0 W/m² | - |
| 1777924533 | 13.89° C | 70% | 1017.7 hPa | 0 mm | - | 0 W/m² | - |
| 1777923931 | 13.89° C | 72% | 1017.7 hPa | 0 mm | - | 0 W/m² | - |
* Rain latest hour (hover to see other rain measurements)
** Current wind speed in m/s (hover to see current wind gust speed)